AEROCUBE 7

Last updated on Fri Sep 19 2025 00:03:49 GMT+0000 (Coordinated Universal Time)

1 40966U 15058C 25260.93589829 .00006890 00000+0 56158-3 0 9992 2 40966 64.7657 15.8352 0141092 167.1536 193.3234 14.92729937325279
UTC large
Height (km)
Speed (km/s)
/
Latitude / Longitude
Inclination (degrees)
Orbital Period (minutes)
Azimuth
Elevation
Range (km)
Doppler Factor

Next 0 passes for location: London (51.5072 / 0.1276)

Sorry there are no passes over London.